Regional Weather Roundup
Issued by NWS Upton, NY

Current Version | Previous Version | Graphics & Text | Print | Product List | Glossary Off
Versions: 1 2 3 4 5 6 7 8 9 10 11 12 13 14 15 16 17 18 19 20 21 22 23 24 25 26 27 28 29 30 31 32 33 34 35 36 37 38 39 40 41 42 43 44 45 46 47 48 49 50

000
ASUS41 KOKX 231504
RWROKX

REGIONAL WEATHER ROUNDUP
NATIONAL WEATHER SERVICE NEW YORK NY
1100 AM EDT MON MAY 23 2016

NOTE: "FAIR" INDICATES FEW OR NO CLOUDS BELOW 12,000 FEET WITH NO
SIGNIFICANT WEATHER AND/OR OBSTRUCTIONS TO VISIBILITY.

NYZ071-072-176-178-NJZ106-104-231600-
NEW YORK CITY METRO AREA


CITY           SKY/WX    TMP DP  RH WIND       PRES   REMARKS
CENTRAL PARK   SUNNY     70  51  51 NW5       29.94F
LAGUARDIA APRT MOSUNNY   70  55  59 E10       29.91F
KENNEDY INTL   MOSUNNY   66  52  60 SE14      29.94R
NEWARK/LIBERTY MOSUNNY   72  52  49 NE12G17   29.91F
BRNX BOT. GARD   N/A     70  52  52 S3        29.93R
TETERBORO      SUNNY     72  50  45 N7        29.90F
$$

NYZ177-179-078>081-231600-
LONG ISLAND NEW YORK

CITY           SKY/WX    TMP DP  RH WIND       PRES   REMARKS
FARMINGDALE    SUNNY     68  55  63 S7        29.92F
ISLIP          MOSUNNY   69  53  56 VRB5      29.91F
SHIRLEY        MOSUNNY   69  50  50 S7        29.92F
RIVERHEAD        N/A     66  55  68 NE8       29.91S
WESTHAMPTON    SUNNY     65  48  54 N12       29.92F
EAST HAMPTON   FAIR      68  46  45 NE7       29.91F
MONTAUK POINT    N/A     63  49  60 NW6       29.93F
$$

NYZ052-065-067-231600-
HUDSON VALLEY

CITY           SKY/WX    TMP DP  RH WIND       PRES   REMARKS
WHITE PLAINS   MOSUNNY   72  51  47 NE6       29.91F
NEWBURGH       SUNNY     72  55  56 NE12      29.94F
MONTGOMERY     SUNNY     72  54  53 NE12      29.93F
POUGHKEEPSIE   SUNNY     74  54  49 N12       29.92F
ALBANY         MOSUNNY   71  52  50 N7        29.96F
$$

NJZ001-105-106-008-010-013-015-019>022-104-231600-
NEW JERSEY

CITY           SKY/WX    TMP DP  RH WIND       PRES   REMARKS
NEWARK/LIBERTY MOSUNNY   72  52  49 NE12G17   29.91F
TETERBORO      SUNNY     72  50  45 N7        29.90F
CALDWELL       SUNNY     73  51  46 VRB6      29.91F
MORRISTOWN     SUNNY     72  54  53 NE9       29.92F
SOMERVILLE     SUNNY     73  51  46 MISG      29.90F
SUSSEX         SUNNY     70  52  52 NE12      29.93F
ANDOVER          N/A     70  52  52 VRB5      29.93F
TRENTON        SUNNY     70  55  59 E6        29.91F
MILLVILLE      MOSUNNY   66  52  60 NE8       29.93R
ATLANTIC CITY  MOSUNNY   68  52  56 E13       29.93R
WRIGHTSTOWN    PTSUNNY   68  55  62 NE7       29.90F
TOMS RIVER     SUNNY     68  48  49 NE7       29.92F
BELMAR         SUNNY     67  53  61 E5        29.93S
$$

PAZ047>061-062-071-231600-
EASTERN PENNSYLVANIA

CITY           SKY/WX    TMP DP  RH WIND       PRES   REMARKS
PHILADELPHIA   PTSUNNY   69  55  60 E6        29.93S
ALLENTOWN      SUNNY     71  52  50 NE5       29.93F
SCRANTON       SUNNY     67  53  61 VRB6      29.96F
$$

CTZ002-004>006-009-010-012-RIZ004-006-007-MAZ004-011-015-231600-
SOUTHERN NEW ENGLAND
 IN CT

CITY           SKY/WX    TMP DP  RH WIND       PRES   REMARKS
BRADLEY INTL   MOSUNNY   72  52  49 N7        29.92F
HARTFORD       SUNNY     71  55  56 VRB3      29.92F
DANBURY        SUNNY     71  52  50 N9          N/A
WTRBRY/OXFORD  MOSUNNY   70  52  52 NE7       29.94F
BRIDGEPORT     SUNNY     63  54  72 E9        29.92F
MERIDEN        SUNNY     72  53  51 N6        29.92F
NEW HAVEN      MOSUNNY   65  54  67 S8        29.91F
CHESTER        FAIR      70  50  49 VRB5      29.92F
GROTON         SUNNY     65  53  65 SW9       29.90F
WILLIMANTIC    MOSUNNY   72  51  47 SW5       29.92F

 IN RI

CITY           SKY/WX    TMP DP  RH WIND       PRES   REMARKS
PROVIDENCE     MOSUNNY   71  48  43 CALM      29.92F
BLOCK ISLAND   CLOUDY    66  47  50 NE3       29.92F
WESTERLY       SUNNY     72  44  36 VRB3      29.91F

 IN MA

CITY           SKY/WX    TMP DP  RH WIND       PRES   REMARKS
BOSTON         MOSUNNY   67  51  56 SE7       29.93S
WORCESTER        N/A    N/A N/A N/A MISG        N/A
WESTFIELD      SUNNY     71  52  50 N6        29.93F
PROVINCETOWN   MOSUNNY   61  52  72 NW7       29.93R
NANTUCKET      MOSUNNY   68  49  50 N14       29.90S
$$

ANZ330-335-338-340-345-350-353-355-231600-
COASTAL MARINE OBSERVATIONS


STATION/POSITION TIME  SKY/WX   TEMP    WIND        PRES    VSBY  WAVE
                                AIR SEA DIR/SP/G                  HT/PER
                 (UTC)          (F)     (DEG/KT/KT) (MB)    (MI)  (FT/S)
NY HARB ENTRANCE 1350            58 57   40/  4/  4 1013.0          4/ 9
20S FIRE ISLAND  1350            54 54   30/  8/  8 1013.0          5/ 8
GREAT SOUTH BAY  1400            59 62  140/  8/  8   N/A
23 SSW MONTAUK P 1450            56 54   20/  6/  6 1012.5          4/10
15 E BARNEGAT LI 1422               54                N/A           4/ 8
HUDSON CANYON    1350            54 53              1011.6          5/ 9
KINGS POINT      1400            60 56              1012.9
EXECUTION ROCKS  NOT AVBL
CENTRAL LI SOUND 1400            58     110/  2/  2   N/A           0
EASTERN LI SOUND 1400            57 54  250/  2/  4   N/A
ROBBINS REEF     1400            63     310/  2/  4 1012.4
$$


>>>>>>>>>>>>>>>>>>>>>>>>>>>> KEY <<<<<<<<<<<<<<<<<<<<<<<<<<<
>                                                          <
>     SKY/WX - SKY CONDITION/PRESENT WEATHER               <
>     TMP    - TEMPERATURE IN FAHRENHEIT                   <
>     DP     - DEWPOINT IN FAHRENHEIT                      <
>     RH     - RELATIVE HUMIDITY IN PERCENT                <
>     WIND   - DIRECTION AND SPEED IN MPH                  <
>     PRES   - MEAN SEA LEVEL PRESSURE IN INCHES OF HG     <
>     WCI    - WIND CHILL INDEX                            <
>     VSB    - VISIBILITY IN MILES                         <
>     HX     - HEAT INDEX                                  <
>     TC     - TEMPERATURE IN CELSIUS                      <
>     VRB    - VARIABLE WIND DIRECTION                     <
>                                                          <
>>>>>>>>>>>>>>>>>>>>>>>>>>>> KEY <<<<<<<<<<<<<<<<<<<<<<<<<<<





USA.gov is the U.S. government's official web portal to all federal, state and local government web resources and services.